AEE218 EBBR-EPKK

Flight info

Callsign AEE218
Flight time N/A
Altitude 35000
Route SOPOK Y863 OGLOR DCT EMGOD DCT BOMBI DCT LOHRE DCT KOMIB L984 LONLI DCT ABERU L984 OKG DCT BALTU DCT OKL DCT BEKVI DCT OMIFU DCT SOPAV DCT PADKA
Aircraft B738/M-SDE2E3FGHIRWXY/LB1

Departure

Time 2026-05-08 07:58
Airport Brussels Airport (EBBR)

Arrival

Time N/A
Airport Kraków John Paul II International Airport (EPKK)
Time Latitude Longitude Altitude Speed Heading
2026-05-08 07:42 50.89649 4.48962 148 ft 0 kts 335°
2026-05-08 07:49 50.89640 4.48968 148 ft 4 kts 336°
2026-05-08 07:50 50.89615 4.48983 150 ft 4 kts 343°
2026-05-08 07:50 50.89589 4.48993 152 ft 4 kts 356°
2026-05-08 07:50 50.89564 4.48989 152 ft 4 kts 36°
2026-05-08 07:50 50.89556 4.48978 152 ft 1 kts 65°
2026-05-08 07:53 50.89561 4.48994 153 ft 4 kts 65°
2026-05-08 07:53 50.89591 4.49070 153 ft 11 kts 44°
2026-05-08 07:54 50.89612 4.49148 153 ft 5 kts 101°
2026-05-08 07:54 50.89575 4.49188 155 ft 7 kts 185°
2026-05-08 07:54 50.89508 4.49164 159 ft 13 kts 195°
2026-05-08 07:54 50.89419 4.49128 163 ft 13 kts 194°
2026-05-08 07:55 50.89339 4.49078 165 ft 13 kts 234°
2026-05-08 07:55 50.89297 4.48911 165 ft 23 kts 250°
2026-05-08 07:55 50.89240 4.48665 163 ft 24 kts 250°
2026-05-08 07:55 50.89181 4.48412 163 ft 25 kts 249°
2026-05-08 07:56 50.89124 4.48158 163 ft 24 kts 250°
2026-05-08 07:56 50.89085 4.47984 163 ft 16 kts 249°
2026-05-08 07:56 50.89002 4.47915 170 ft 15 kts 155°
2026-05-08 07:56 50.88955 4.47961 175 ft 5 kts 132°
2026-05-08 07:57 50.88938 4.48033 177 ft 8 kts 101°
2026-05-08 07:57 50.88932 4.48129 178 ft 12 kts 82°
2026-05-08 07:57 50.89034 4.48588 177 ft 88 kts 70°
2026-05-08 07:57 50.89348 4.49922 205 ft 166 kts 69°
2026-05-08 07:58 50.89772 4.51718 1022 ft 178 kts 71°
2026-05-08 07:58 50.90206 4.53513 2276 ft 177 kts 65°
2026-05-08 07:58 50.90801 4.55380 2806 ft 208 kts 63°
2026-05-08 07:58 50.91509 4.57517 3028 ft 227 kts 63°
2026-05-08 07:59 50.92262 4.59794 3315 ft 241 kts 63°
2026-05-08 07:59 50.93064 4.62233 3621 ft 256 kts 63°
2026-05-08 07:59 50.93859 4.64781 4249 ft 260 kts 69°
2026-05-08 07:59 50.94416 4.67507 4983 ft 261 kts 75°
2026-05-08 08:00 50.94921 4.70287 5658 ft 264 kts 75°
2026-05-08 08:00 50.95439 4.73098 6337 ft 267 kts 74°
2026-05-08 08:00 50.95698 4.76012 6940 ft 270 kts 98°
2026-05-08 08:00 50.95044 4.78796 7601 ft 271 kts 125°
2026-05-08 08:01 50.93730 4.80952 8221 ft 275 kts 141°
2026-05-08 08:01 50.92234 4.82883 8892 ft 280 kts 142°
2026-05-08 08:01 50.90715 4.84832 9623 ft 283 kts 142°
2026-05-08 08:01 50.89192 4.86789 10271 ft 287 kts 144°
2026-05-08 08:02 50.87349 4.88168 10493 ft 305 kts 171°
2026-05-08 08:02 50.85168 4.88553 10689 ft 325 kts 175°
2026-05-08 08:02 50.82850 4.88872 10982 ft 340 kts 176°
2026-05-08 08:02 50.80467 4.89206 11545 ft 346 kts 175°
2026-05-08 08:03 50.78055 4.89561 12218 ft 349 kts 175°
2026-05-08 08:03 50.75623 4.89934 12907 ft 353 kts 175°
2026-05-08 08:03 50.73166 4.90317 13619 ft 356 kts 175°
2026-05-08 08:03 50.70713 4.90703 14271 ft 360 kts 175°
2026-05-08 08:04 50.68279 4.91742 14890 ft 368 kts 154°
2026-05-08 08:04 50.66252 4.94211 15593 ft 373 kts 133°
2026-05-08 08:04 50.64861 4.97674 16260 ft 379 kts 112°
2026-05-08 08:04 50.64007 5.01620 16930 ft 382 kts 108°
2026-05-08 08:05 50.63218 5.05646 17549 ft 387 kts 108°
2026-05-08 08:05 50.62423 5.09725 18189 ft 391 kts 108°
2026-05-08 08:05 50.61606 5.13832 18766 ft 394 kts 109°
2026-05-08 08:05 50.60763 5.17968 19247 ft 400 kts 109°
2026-05-08 08:06 50.59898 5.22151 19797 ft 402 kts 109°
2026-05-08 08:06 50.59010 5.26338 20388 ft 404 kts 112°
2026-05-08 08:06 50.57573 5.30044 20884 ft 403 kts 135°
2026-05-08 08:06 50.55532 5.33062 21484 ft 403 kts 139°
2026-05-08 08:07 50.53454 5.36057 22033 ft 407 kts 139°
2026-05-08 08:07 50.51366 5.39089 22517 ft 410 kts 139°
2026-05-08 08:07 50.49273 5.42149 23080 ft 411 kts 139°
2026-05-08 08:07 50.47180 5.45229 23595 ft 414 kts 139°
2026-05-08 08:08 50.45072 5.48340 23999 ft 417 kts 139°
2026-05-08 08:08 50.42951 5.51472 24412 ft 420 kts 139°
2026-05-08 08:08 50.40822 5.54613 24834 ft 422 kts 139°
2026-05-08 08:08 50.38674 5.57781 25211 ft 425 kts 139°
2026-05-08 08:09 50.36507 5.60970 25561 ft 429 kts 139°
2026-05-08 08:09 50.34325 5.64180 25957 ft 431 kts 139°
2026-05-08 08:09 50.32129 5.67405 26351 ft 433 kts 139°
2026-05-08 08:09 50.29925 5.70635 26734 ft 435 kts 139°
2026-05-08 08:10 50.27736 5.73837 27084 ft 437 kts 139°
2026-05-08 08:10 50.25672 5.77435 27409 ft 444 kts 124°
2026-05-08 08:10 50.24416 5.81792 27746 ft 450 kts 108°
2026-05-08 08:10 50.23627 5.86528 28140 ft 451 kts 105°
2026-05-08 08:11 50.22877 5.91304 28441 ft 455 kts 105°
2026-05-08 08:11 50.22111 5.96117 28724 ft 458 kts 106°
2026-05-08 08:11 50.21317 6.00949 29022 ft 460 kts 106°
2026-05-08 08:11 50.20498 6.05801 29333 ft 462 kts 107°
2026-05-08 08:12 50.19666 6.10668 29638 ft 464 kts 107°
2026-05-08 08:12 50.18854 6.15550 29934 ft 466 kts 103°
2026-05-08 08:12 50.18409 6.20515 30208 ft 470 kts 95°
2026-05-08 08:12 50.18467 6.25611 30537 ft 471 kts 85°
2026-05-08 08:13 50.18812 6.30696 30891 ft 470 kts 85°
2026-05-08 08:13 50.19182 6.35761 31181 ft 471 kts 85°
2026-05-08 08:13 50.19542 6.40839 31444 ft 472 kts 85°
2026-05-08 08:13 50.19879 6.45934 31741 ft 472 kts 85°
2026-05-08 08:14 50.20199 6.51047 32019 ft 473 kts 85°
2026-05-08 08:14 50.20511 6.56158 32314 ft 473 kts 86°
2026-05-08 08:14 50.20819 6.61266 32620 ft 472 kts 86°
2026-05-08 08:14 50.21056 6.66371 32912 ft 472 kts 90°
2026-05-08 08:15 50.21035 6.71493 33195 ft 471 kts 93°
2026-05-08 08:15 50.20912 6.76599 33492 ft 471 kts 94°
2026-05-08 08:15 50.20761 6.81726 33811 ft 471 kts 94°
2026-05-08 08:15 50.20616 6.86833 34096 ft 471 kts 94°
2026-05-08 08:16 50.20488 6.91946 34305 ft 472 kts 94°
2026-05-08 08:16 50.20374 6.97062 34506 ft 472 kts 94°
2026-05-08 08:16 50.20268 7.02197 34738 ft 472 kts 93°
2026-05-08 08:16 50.20163 7.07314 34977 ft 472 kts 93°
2026-05-08 08:17 50.20057 7.12439 35109 ft 474 kts 93°
2026-05-08 08:17 50.19832 7.22761 35119 ft 477 kts 93°
2026-05-08 08:18 50.19586 7.33047 35093 ft 471 kts 96°
2026-05-08 08:18 50.18811 7.43090 35105 ft 468 kts 100°
2026-05-08 08:19 50.17850 7.53124 35114 ft 468 kts 100°
2026-05-08 08:19 50.16900 7.63176 35104 ft 468 kts 100°
2026-05-08 08:20 50.15974 7.73227 35124 ft 468 kts 100°
2026-05-08 08:20 50.15050 7.83292 35113 ft 469 kts 100°
2026-05-08 08:21 50.14117 7.93364 35135 ft 470 kts 100°
2026-05-08 08:21 50.13176 8.03410 35134 ft 471 kts 100°
2026-05-08 08:22 50.12219 8.13514 35134 ft 472 kts 100°
2026-05-08 08:22 50.11252 8.23640 35143 ft 472 kts 100°
2026-05-08 08:23 50.10275 8.33766 35133 ft 473 kts 100°
2026-05-08 08:23 50.09294 8.43845 35132 ft 473 kts 100°
2026-05-08 08:24 50.08291 8.54046 35130 ft 473 kts 100°
2026-05-08 08:24 50.07294 8.64106 35130 ft 473 kts 100°
2026-05-08 08:25 50.06283 8.74225 35129 ft 473 kts 101°
2026-05-08 08:25 50.05623 8.84407 35127 ft 474 kts 90°
2026-05-08 08:26 50.05844 8.94657 35119 ft 474 kts 89°
2026-05-08 08:26 50.06093 9.04917 35122 ft 474 kts 89°
2026-05-08 08:27 50.06269 9.15185 35138 ft 474 kts 90°
2026-05-08 08:27 50.06409 9.25470 35121 ft 474 kts 90°
2026-05-08 08:28 50.06542 9.35735 35117 ft 474 kts 90°
2026-05-08 08:28 50.06670 9.46002 35116 ft 474 kts 90°
2026-05-08 08:29 50.06784 9.56205 35115 ft 475 kts 90°
2026-05-08 08:29 50.06886 9.66472 35111 ft 475 kts 90°
2026-05-08 08:30 50.06979 9.76767 35122 ft 475 kts 90°
2026-05-08 08:30 50.07104 9.92185 35130 ft 475 kts 90°
2026-05-08 08:31 50.07177 10.02480 35128 ft 476 kts 90°
2026-05-08 08:31 50.07240 10.12782 35119 ft 476 kts 90°
2026-05-08 08:32 50.07295 10.23084 35137 ft 476 kts 90°
2026-05-08 08:32 50.07349 10.33390 35132 ft 476 kts 90°
2026-05-08 08:33 50.07401 10.43664 35130 ft 477 kts 90°
2026-05-08 08:33 50.07445 10.53994 35128 ft 477 kts 90°
2026-05-08 08:34 50.07480 10.64324 35130 ft 477 kts 90°
2026-05-08 08:34 50.07504 10.74660 35129 ft 477 kts 90°
2026-05-08 08:35 50.07519 10.84932 35128 ft 478 kts 90°
2026-05-08 08:35 50.07525 10.95278 35122 ft 478 kts 91°
2026-05-08 08:36 50.07524 11.03949 35124 ft 478 kts 91°
2026-05-08 08:36 50.07515 11.14232 35129 ft 478 kts 91°
2026-05-08 08:37 50.07496 11.24585 35124 ft 478 kts 91°
2026-05-08 08:37 50.07456 11.34939 35124 ft 478 kts 91°
2026-05-08 08:38 50.07405 11.45298 35126 ft 478 kts 91°
2026-05-08 08:38 50.07346 11.55651 35140 ft 478 kts 91°
2026-05-08 08:39 50.07279 11.66015 35128 ft 478 kts 91°
2026-05-08 08:39 50.07203 11.76373 35128 ft 478 kts 91°
2026-05-08 08:40 50.07118 11.86667 35123 ft 478 kts 91°
2026-05-08 08:40 50.07024 11.97016 35115 ft 478 kts 91°
2026-05-08 08:41 50.06922 12.07350 35129 ft 477 kts 91°
2026-05-08 08:41 50.06804 12.17688 35123 ft 477 kts 92°
2026-05-08 08:42 50.06671 12.28013 35126 ft 477 kts 92°
2026-05-08 08:42 50.06532 12.38355 35115 ft 477 kts 92°
2026-05-08 08:43 50.06625 12.48698 35121 ft 478 kts 88°
2026-05-08 08:43 50.06976 12.58964 35123 ft 478 kts 87°
2026-05-08 08:44 50.07317 12.69302 35125 ft 478 kts 88°
2026-05-08 08:44 50.07611 12.79655 35126 ft 478 kts 88°
2026-05-08 08:45 50.07880 12.90013 35125 ft 479 kts 88°
2026-05-08 08:45 50.08140 13.00369 35126 ft 479 kts 88°
2026-05-08 08:46 50.08393 13.10739 35127 ft 479 kts 88°
2026-05-08 08:46 50.08636 13.21044 35116 ft 479 kts 88°
2026-05-08 08:47 50.08873 13.31424 35123 ft 479 kts 88°
2026-05-08 08:47 50.09036 13.41808 35121 ft 479 kts 89°
2026-05-08 08:48 50.09122 13.52198 35141 ft 479 kts 90°
2026-05-08 08:48 50.09205 13.62592 35125 ft 479 kts 90°
2026-05-08 08:49 50.09289 13.72910 35124 ft 479 kts 90°
2026-05-08 08:49 50.09369 13.83276 35127 ft 478 kts 90°
2026-05-08 08:50 50.09439 13.93631 35129 ft 478 kts 90°
2026-05-08 08:50 50.09500 14.03982 35129 ft 477 kts 90°
2026-05-08 08:51 50.09551 14.14322 35132 ft 477 kts 90°
2026-05-08 08:51 50.09594 14.24672 35127 ft 478 kts 90°
2026-05-08 08:52 50.09292 14.34990 35130 ft 477 kts 95°
2026-05-08 08:52 50.08715 14.45225 35132 ft 477 kts 96°
2026-05-08 08:53 50.08157 14.55535 35131 ft 478 kts 95°
2026-05-08 08:53 50.07629 14.65864 35132 ft 479 kts 95°
2026-05-08 08:54 50.07108 14.76209 35129 ft 479 kts 95°
2026-05-08 08:54 50.06688 14.86586 35129 ft 480 kts 94°
2026-05-08 08:55 50.06283 14.96956 35123 ft 480 kts 94°
2026-05-08 08:55 50.05859 15.07286 35123 ft 481 kts 94°
2026-05-08 08:56 50.05413 15.17678 35119 ft 481 kts 95°
2026-05-08 08:56 50.04957 15.28059 35119 ft 481 kts 95°
2026-05-08 08:57 50.04490 15.38462 35118 ft 481 kts 95°
2026-05-08 08:57 50.04018 15.48787 35121 ft 481 kts 95°
2026-05-08 08:58 50.03534 15.59178 35129 ft 482 kts 95°
2026-05-08 08:58 50.03040 15.69594 35128 ft 481 kts 95°
2026-05-08 08:59 50.02538 15.79975 35130 ft 481 kts 95°
2026-05-08 08:59 50.02028 15.90350 35128 ft 481 kts 95°
2026-05-08 09:00 50.01529 16.00736 35112 ft 482 kts 94°
2026-05-08 09:00 50.01178 16.11136 35114 ft 482 kts 93°
2026-05-08 09:01 50.00860 16.21497 35096 ft 483 kts 94°
2026-05-08 09:01 50.00514 16.31929 35113 ft 483 kts 94°
2026-05-08 09:02 50.00143 16.42380 35113 ft 484 kts 94°
2026-05-08 09:02 49.99759 16.52825 35108 ft 484 kts 94°
2026-05-08 09:03 49.99365 16.63284 35098 ft 485 kts 94°
2026-05-08 09:03 49.98965 16.73677 35098 ft 485 kts 94°
2026-05-08 09:04 49.98552 16.84162 35091 ft 485 kts 94°
2026-05-08 09:04 49.98130 16.94646 35098 ft 485 kts 94°
2026-05-08 09:05 49.97699 17.05121 35098 ft 486 kts 95°
2026-05-08 09:05 49.97257 17.15622 34634 ft 492 kts 95°
2026-05-08 09:06 49.97029 17.20934 34058 ft 492 kts 95°
2026-05-08 09:06 49.96800 17.26232 33383 ft 491 kts 95°
2026-05-08 09:06 49.96571 17.31497 32936 ft 486 kts 95°
2026-05-08 09:06 49.96340 17.36722 32453 ft 481 kts 95°
2026-05-08 09:07 49.96111 17.41873 31994 ft 477 kts 94°
2026-05-08 09:07 49.95884 17.46921 31548 ft 472 kts 94°
2026-05-08 09:07 49.95653 17.51992 31109 ft 468 kts 94°
2026-05-08 09:07 49.95422 17.57011 30675 ft 465 kts 94°
2026-05-08 09:08 49.95191 17.61993 30234 ft 461 kts 94°
2026-05-08 09:08 49.94960 17.66942 29719 ft 457 kts 94°
2026-05-08 09:08 49.94728 17.71845 29245 ft 452 kts 94°
2026-05-08 09:08 49.94497 17.76698 28796 ft 447 kts 94°
2026-05-08 09:09 49.94268 17.81483 28341 ft 442 kts 95°
2026-05-08 09:09 49.94038 17.86231 27897 ft 438 kts 95°
2026-05-08 09:09 49.93809 17.90921 27455 ft 434 kts 95°
2026-05-08 09:09 49.93584 17.95510 27029 ft 430 kts 95°
2026-05-08 09:10 49.93355 18.00117 26586 ft 426 kts 95°
2026-05-08 09:10 49.93129 18.04679 26156 ft 423 kts 94°
2026-05-08 09:10 49.93049 18.09225 25685 ft 420 kts 89°
2026-05-08 09:10 49.93131 18.13740 25241 ft 418 kts 87°
2026-05-08 09:11 49.93245 18.18232 24846 ft 414 kts 88°
2026-05-08 09:11 49.93332 18.22693 24430 ft 411 kts 88°
2026-05-08 09:11 49.93394 18.27129 24017 ft 409 kts 89°
2026-05-08 09:11 49.93381 18.31541 23534 ft 407 kts 91°
2026-05-08 09:12 49.93253 18.35923 23038 ft 405 kts 93°
2026-05-08 09:12 49.93093 18.40215 22590 ft 402 kts 93°
2026-05-08 09:12 49.92932 18.44524 22154 ft 398 kts 93°
2026-05-08 09:12 49.92783 18.48811 21718 ft 395 kts 93°
2026-05-08 09:13 49.92644 18.53055 21304 ft 392 kts 92°
2026-05-08 09:13 49.92511 18.57262 20892 ft 389 kts 92°
2026-05-08 09:13 49.92378 18.61444 20483 ft 386 kts 92°
2026-05-08 09:13 49.92244 18.65601 20077 ft 383 kts 92°
2026-05-08 09:14 49.92111 18.69667 19683 ft 381 kts 92°
2026-05-08 09:14 49.91977 18.73763 19293 ft 378 kts 92°
2026-05-08 09:14 49.91841 18.77830 18892 ft 376 kts 92°
2026-05-08 09:14 49.91681 18.81870 18498 ft 374 kts 94°
2026-05-08 09:15 49.91460 18.85883 18060 ft 372 kts 95°
2026-05-08 09:15 49.91221 18.89869 17628 ft 370 kts 95°
2026-05-08 09:15 49.90990 18.93807 17419 ft 361 kts 95°
2026-05-08 09:15 49.90769 18.97645 17252 ft 352 kts 95°
2026-05-08 09:16 49.90557 19.01381 17099 ft 343 kts 95°
2026-05-08 09:16 49.90351 19.05008 16829 ft 338 kts 95°
2026-05-08 09:16 49.90144 19.08637 16503 ft 336 kts 95°
2026-05-08 09:16 49.89936 19.12242 16180 ft 334 kts 95°
2026-05-08 09:17 49.89730 19.15827 15858 ft 332 kts 95°
2026-05-08 09:17 49.89523 19.19386 15540 ft 330 kts 95°
2026-05-08 09:17 49.89319 19.22883 15212 ft 328 kts 95°
2026-05-08 09:17 49.89125 19.26398 14886 ft 326 kts 91°
2026-05-08 09:18 49.89473 19.29840 14546 ft 323 kts 68°
2026-05-08 09:18 49.90344 19.33025 14260 ft 320 kts 64°
2026-05-08 09:18 49.91260 19.36171 13936 ft 319 kts 64°
2026-05-08 09:18 49.92168 19.39314 13579 ft 318 kts 65°
2026-05-08 09:19 49.93057 19.42452 13241 ft 317 kts 65°
2026-05-08 09:19 49.93932 19.45574 12906 ft 315 kts 66°